Location: Unspecified
(0.0000°N, 0.0000°E)
Time: 13:40:53
(UTC+00:00)

A-11 Canister half - Pass Details

Date: 24 November 2019
Orbit: 1515 x 1685 km, 47.2° (Epoch: 08 December)

Event Time Altitude Azimuth Distance (km) Brightness Sun altitude
Rises 22:33:49 0° 355° (N) 4,904 - -62.7°
Reaches altitude 10° 22:40:33 10° 26° (NNE) 3,887 - -63.8°
Maximum altitude 22:43:20 11° 43° (NE) 3,762 - -64.2°
Drops below altitude 10° 22:46:06 10° 60° (ENE) 3,856 - -64.6°
Sets 22:52:34 0° 91° (E) 4,799 - -65.5°
